Location: Foulognes
(49.1413°N, 0.8183°W)
Time: 15:53:42
(UTC+00:00)

STARLINK-59 - Pass Details

Date: 21 October 2019
Orbit: 548 x 551 km, 53.0° (Epoch: 17 November)

Event Time Altitude Azimuth Distance (km) Brightness Sun altitude
Rises 17:22:10 0° 264° (W) 2,714 9.9 -4.0°
Reaches altitude 10° 17:24:26 10° 269° (W) 1,822 8.1 -4.3°
Maximum altitude 17:28:31 56° 348° (NNW) 660 4.1 -5.0°
Drops below altitude 10° 17:32:36 10° 67° (ENE) 1,827 5.6 -5.7°
Enters shadow 17:33:17 - 69° (ENE) 2,089 5.9 -5.8°
